Stratford, CT

11:33 AM EDT on August 28, 2016 (GMT -0400)
Sikorsky Memorial

Weather History for KBDR - June, 2013

Change the Weather History Date:

Friday, June 21, 2013

  Actual Average Record
Temperature  
Mean Temperature 74 °F 70 °F  
Max Temperature 82 °F 79 °F 96 °F (2012)
Min Temperature 65 °F 62 °F 51 °F (1970)
Degree Days  
Heating Degree Days 0 0  
Month to date heating degree days 18 30  
Since 1 June heating degree days 18 30  
Since 1 July heating degree days 5094 5390  
Cooling Degree Days 9 6  
Month to date cooling degree days 73 81  
Year to date cooling degree days 111 105  
Since 1 June cooling degree days 73 81  
Growing Degree Days 23 (Base 50)    
Moisture  
Dew Point 57 °F    
Average Humidity 59    
Maximum Humidity 73    
Minimum Humidity 45    
Precipitation  
Precipitation 0.00 in 0.10 in 0.72 in (2003)
Month to date precipitation 8.83 2.75  
Year to date precipitation 22.43 20.62  
Snow  
Snow 0.00 in 0.00 in 0.00 in (2002)
Month to date snowfall 0.0 0.0  
Since 1 July snowfall 64.3 27.6  
Snow Depth 0.00 in    
Sea Level Pressure  
Sea Level Pressure 30.27 in    
Wind  
Wind Speed 11 mph (SW)    
Max Wind Speed 17 mph    
Max Gust Speed 21 mph    
Visibility 10 miles    
Events      
T = Trace of Precipitation, MM = Missing Value Source: NWS Daily Summary

Daily Weather History Graph

Daily Weather History Graph

Search for Another Location

Airport or City:

Trip Planner

Search our weather history database for the weather conditions in past years. The results will help you decide how hot, cold, wet, or windy it might be!

Date:

Astronomy

Jun. 21, 2013 Rise Set
Actual Time 5:19 AM EDT 8:28 PM EDT
Civil Twilight 4:46 AM EDT 9:02 PM EDT
Nautical Twilight 4:02 AM EDT 9:45 PM EDT
Astronomical Twilight 3:11 AM EDT 10:37 PM EDT
Moon 6:35 PM EDT (6/21) 3:33 AM EDT (6/21)
Length of Visible Light 16h 16m
Length of Day
15h 08m
Waxing Gibbous, 95% of the Moon is Illuminated
Jun 21
Waxing Gibbous
Jun 23
Full
Jun 30
Last Quarter
Jul 8
New
Jul 15
First Quarter

Hourly Weather History & Observations

Time (EDT) Temp. Heat Index Dew Point Humidity Pressure Visibility Wind Dir Wind Speed Gust Speed Precip Events Conditions
12:52 AM 66.9 °F - 54.0 °F 63% 30.29 in 10.0 mi SW 11.5 mph - N/A   Clear
1:52 AM 66.0 °F - 57.0 °F 73% 30.27 in 10.0 mi SW 12.7 mph - N/A   Clear
2:52 AM 66.0 °F - 57.0 °F 73% 30.28 in 10.0 mi SW 11.5 mph - N/A   Clear
3:52 AM 66.0 °F - 55.0 °F 68% 30.27 in 10.0 mi SW 12.7 mph - N/A   Clear
4:52 AM 66.0 °F - 54.0 °F 65% 30.27 in 10.0 mi SW 10.4 mph - N/A   Clear
5:52 AM 66.0 °F - 54.0 °F 65% 30.28 in 10.0 mi SW 10.4 mph - N/A   Clear
6:52 AM 66.9 °F - 54.0 °F 63% 30.29 in 10.0 mi SW 10.4 mph - N/A   Clear
7:52 AM 69.1 °F - 55.9 °F 63% 30.30 in 10.0 mi SW 6.9 mph - N/A   Clear
8:52 AM 70.0 °F - 55.9 °F 61% 30.30 in 10.0 mi SW 12.7 mph - N/A   Clear
9:52 AM 71.1 °F - 55.9 °F 59% 30.28 in 10.0 mi SW 10.4 mph - N/A   Clear
10:52 AM 73.0 °F - 57.0 °F 57% 30.28 in 10.0 mi SW 11.5 mph - N/A   Clear
11:52 AM 75.9 °F - 57.0 °F 52% 30.30 in 10.0 mi SW 12.7 mph - N/A   Clear
12:52 PM 78.1 °F - 55.0 °F 45% 30.28 in 10.0 mi SW 12.7 mph - N/A   Clear
1:52 PM 81.0 °F 81.0 °F 57.0 °F 44% 30.27 in 10.0 mi SW 11.5 mph - N/A   Clear
2:52 PM 81.0 °F 81.0 °F 57.0 °F 44% 30.26 in 10.0 mi SW 12.7 mph - N/A   Clear
3:52 PM 81.0 °F 81.6 °F 60.1 °F 49% 30.25 in 10.0 mi South 12.7 mph - N/A   Clear
4:52 PM 79.0 °F - 61.0 °F 54% 30.24 in 10.0 mi SSW 13.8 mph - N/A   Clear
5:52 PM 77.0 °F - 60.1 °F 56% 30.24 in 10.0 mi SSW 13.8 mph - N/A   Clear
6:52 PM 75.0 °F - 59.0 °F 57% 30.25 in 10.0 mi SSW 12.7 mph - N/A   Clear
7:52 PM 73.0 °F - 59.0 °F 61% 30.26 in 10.0 mi SW 9.2 mph - N/A   Clear
8:52 PM 71.1 °F - 57.9 °F 63% 30.26 in 10.0 mi SW 6.9 mph - N/A   Clear
9:52 PM 70.0 °F - 60.1 °F 71% 30.26 in 10.0 mi SW 6.9 mph - N/A   Clear
10:52 PM 69.1 °F - 59.0 °F 70% 30.26 in 10.0 mi SW 8.1 mph - N/A   Clear
11:52 PM 69.1 °F - 57.9 °F 68% 30.26 in 10.0 mi SW 6.9 mph - N/A   Clear